This demonstration page uses our WeatherBlox Daily Observations layout. Learn more.

Left ArrowRight Arrow

Hourly Observations for June 29, 2020

Temp ( °F °C ) Dew Point ( °F °C ) Humidity (%) Winds ( mph kmh ) Pressure ( in mb ) Visibility ( mi km ) Precip ( " mm )
6:30 am 06:30 Cloudy with Fog 72 22 70 21 94 94 Calm 29.91 1013 1 1 N/A
6:47 am 06:47 Cloudy with Fog 72 22 70 21 94 94 Calm 29.92 1013 0 0 N/A
7:47 am 07:47 Cloudy with Fog 72 22 72 22 100 100 Calm 29.94 1014 0 0 N/A
8:12 am 08:12 Cloudy with Fog 72 22 72 22 100 100 Calm 29.95 1014 1 1 N/A
8:31 am 08:31 Cloudy with Mist and Fog 73 23 72 22 94 94 Calm 29.95 1014 1 2 N/A
8:45 am 08:45 Cloudy with Mist and Fog 73 23 72 22 94 94 Calm 29.95 1014 2 3 N/A
8:50 am 08:50 Mostly Cloudy with Mist and Fog 73 23 73 23 100 100 Calm 29.95 1014 3 5 N/A
8:58 am 08:58 Mostly Cloudy with Mist and Fog 73 23 73 23 100 100 Calm 29.95 1014 4 6 N/A
9:10 am 09:10 Mostly Cloudy with Mist and Fog 73 23 72 22 94 94 Calm 29.95 1014 5 8 N/A
9:59 am 09:59 Cloudy with Mist and Fog 75 24 72 22 89 89 SSW 6 9 29.95 1014 5 8 N/A
10:59 am 10:59 Mostly Cloudy 81 27 73 23 79 79 Calm 29.94 1014 7 11 N/A
11:45 am 11:45 Cloudy 81 27 73 23 79 79 Calm 29.95 1014 8 13 N/A
12:45 pm 12:45 Cloudy 82 28 73 23 74 74 S 3 6 29.94 1014 7 11 N/A
1:54 pm 13:54 Cloudy 84 29 73 23 70 70 SE 6 9 29.93 1014 7 11 N/A
2:45 pm 14:45 Cloudy 82 28 73 23 74 74 Calm 29.93 1013 8 13 N/A
3:47 pm 15:47 Cloudy 73 23 70 21 89 89 ESE 6 9 29.93 1013 10 16 N/A
4:50 pm 16:50 Cloudy 77 25 72 22 83 83 Calm 29.90 1013 10 16 N/A
5:50 pm 17:50 Mostly Cloudy 81 27 72 22 74 74 Calm 29.89 1012 10 16 N/A
6:45 pm 18:45 Mostly Cloudy 82 28 73 23 74 74 ESE 6 9 29.90 1012 10 16 N/A
7:45 pm 19:45 Mostly Cloudy 82 28 73 23 74 74 Calm 29.90 1012 10 16 N/A
8:47 pm 20:47 Mostly Cloudy with Nearby Thunderstorms 81 27 75 24 84 84 Calm 29.91 1013 8 13 N/A
9:54 pm 21:54 Mostly Cloudy with Thunderstorms 75 24 66 19 74 74 SSE 6 9 29.92 1013 8 13 N/A

Powered by AerisWeather